User: anonymous   Login
Location: Lake Superior Provincial Park
(47.3335°N, 84.6162°W)
Time: 22:41:24
(UTC-04:00)
Language:

Cosmos 2333 Rocket - Orbit

View from above orbital plane
View from above orbital plane
View from above satellite
View from above satellite

Ground track
Ground track

The orbit data is extracted from the following two-line orbital elements,

1 24298U 96051B   16146.48652085  .00000078  00000-0  68673-4 0  9991
2 24298  70.8335 159.3002 0012985  32.3778 327.8136 14.12401319 17079
Epoch (UTC): 25 May 2016 11:40:35
Eccentricity: 0.0012985
inclination: 70.8335°
perigee height: 842 km
apogee height: 860 km
right ascension of ascending node: 159.3002°
argument of perigee: 32.3778°
revolutions per day: 14.12401319
mean anomaly at epoch: 327.8136°
orbit number at epoch: 1707

The dashed part of the orbit path shows where the satellite is in the earth's shadow,  

DLR